Regional Weather Roundup
Issued by NWS

Home | Current Version | Previous Version | Text Only | Print | Product List | Glossary On
Versions: 1 2 3 4 5 6 7 8 9 10 11 12 13 14 15 16 17 18 19 20 21 22 23 24 25 26 27 28 29 30 31 32 33 34 35 36 37 38 39 40 41 42 43 44 45 46 47 48 49 50
000
ASUS43 KIND 182259
RWRIN

WEATHER ROUNDUP FOR INDIANA
NATIONAL WEATHER SERVICE INDIANAPOLIS IN
600 PM EST WED JAN 18 2017

NOTE: "FAIR" INDICATES FEW OR NO CLOUDS BELOW 12,000 FEET WITH NO
SIGNIFICANT WEATHER AND/OR OBSTRUCTIONS TO VISIBILITY.

* - STATION DOES NOT REPORT WEATHER SUCH AS PRECIPITATION OR FOG.

+ - STATION NOT QUALITY CONTROLLED BY THE NATIONAL WEATHER SERVICE.
    USE DATA WITH CAUTION...ESPECIALLY DEWPOINT AND RELATIVE
    HUMIDITY OBSERVATIONS.

INZ001>003-010>013-019-020-190000-
NORTHWEST INDIANA

CITY           SKY/WX    TMP DP  RH WIND       PRES   REMARKS
GARY /AIRPORT/ CLOUDY    39  32  75 SW12      30.09R
KNOX *+        CLOUDY    34  23  64 SW8       30.10R WCI  27
MONTICELLO +   CLOUDY    36  34  92 SW9       30.11S

$$

LMZ046-743>745-190000-
SOUTHERN LAKE MICHIGAN

STATION/POSITION TIME  TEMP    WIND        PRES    WAVE
                       AIR SEA DIR/SP/G            HT
                 (UTC) (F)     (DEG/KT/KT) (MB)    (FT)
BURNS HARBOR     2240   37     220/ 14/ 17 1019.3R

$$

INZ004-005-014>016-021>024-190000-
NORTH CENTRAL INDIANA

CITY           SKY/WX    TMP DP  RH WIND       PRES   REMARKS
ELKHART        CLOUDY    34  32  93 W7        30.10R FOG     WCI  28
GOSHEN         CLOUDY    34  31  88 W10       30.09S FOG     WCI  26
SOUTH BEND     CLOUDY    33  33 100 W6        30.09S WCI  28

$$

INZ006>009-017-018-025>027-190000-
NORTHEAST INDIANA

CITY           SKY/WX    TMP DP  RH WIND       PRES   REMARKS
ANGOLA *+      CLOUDY    34  34 100 W7        30.08R WCI  28
FORT WAYNE     CLOUDY    36  33  89 SW12      30.11R
KENDALLVILLE + CLOUDY    33  33 100 SW13      30.09R FOG     WCI  24

$$

INZ028-029-035-036-043>045-051>053-190000-
WEST CENTRAL INDIANA

CITY           SKY/WX    TMP DP  RH WIND       PRES   REMARKS
CRAWFORDSVL +  CLOUDY    35  35 100 S7        30.11F WCI  29
LAFAYETTE      CLOUDY    37  34  89 SW7       30.12S
TERRE HAUTE    CLOUDY    39  33  79 SW8       30.14S

$$

INZ030>032-037>040-046>048-054>057-064-065-190000-
CENTRAL INDIANA

CITY           SKY/WX    TMP DP  RH WIND       PRES   REMARKS
COLUMBUS       CLOUDY    39  39 100 SW12      30.15R
INDIANAPOLIS   CLOUDY    38  35  89 S10       30.13R
-EAGLE CREEK   CLOUDY    38  34  85 SW5       30.13R
KOKOMO +       CLOUDY    36  35  96 SW13      30.12S FOG
MT COMFORT *+  CLOUDY    37  36  93 SW7       30.13R
SHELBYVILLE    CLOUDY    40  36  86 SW7       30.13R

$$

INZ033-034-041-042-049-050-058-059-190000-
EAST CENTRAL INDIANA

CITY           SKY/WX    TMP DP  RH WIND       PRES   REMARKS
MUNCIE         CLOUDY    38  35  89 SW5       30.11S

$$

INZ060-061-067>069-081>083-085>088-190000-
SOUTHWEST INDIANA

CITY           SKY/WX    TMP DP  RH WIND       PRES   REMARKS
EVANSVILLE     CLOUDY    42  35  76 S3        30.16S
HUNTINGBURG *+ CLOUDY    41  36  81 SW7       30.16R

$$

INZ062-063-066-070>080-084-089>092-190000-
SOUTH CENTRAL AND SOUTHEAST INDIANA

CITY           SKY/WX    TMP DP  RH WIND       PRES   REMARKS
BLOOMINGTON    CLOUDY    39  34  82 SW3       30.12F
MADISON *+     CLOUDY    41  36  81 SW6       30.17R
SEYMOUR +      CLOUDY    41  36  81 S3        30.14F

$$





USA.gov is the U.S. government's official web portal to all federal, state and local government web resources and services.